Tracking 19575 objects as of 19-Feb-2019
HD Live streaming from Space Station
objects crossing your sky now

THORAD DELTA 1 DEB

Track THORAD DELTA 1 DEB now!
10-day predictions


NORAD ID: 8299
Int'l Code: 1974-089BG
Perigee: 737.9 km
Apogee: 1,501.8 km
Inclination: 102.2 °
Period: 107.5 minutes
Semi major axis: 7490 km
RCS: 0.0568 m2 (small)
Launch date: November 15, 1974
Source: United States (US)
Launch site: AIR FORCE WESTERN TEST RANGE (AFWTR)

Note: This is SATELLITE DEBRIS
aabbcc
Your satellite tracking list
Your tracking list is empty




NASA's NSSDC Master Catalog

Two Line Element Set (TLE):
1  8299U 74089BG  19050.56666708  .00011684  00000-0  10214-1 0  9994
2  8299 102.2078 294.5994 0509921  40.5030 323.2901 13.39077880112156
Source of the keplerian elements: AFSPC